www.pogodaiklimat.ru

Погода и климат >> Архив погоды >> Украина >> Чернигов


АРХИВ ПОГОДЫ в Чернигове

Время (UTC), дата Ветер
(напр.,м/с)
 
Видим.   Явления Облачность Т
(С)
Тd
(С)
f
(%)
Тe
(С)
Тes
(С)
Комфортность P
(гПа)
Po
(гПа)
Тmin
(С)
Tmax
(С)
R
(мм)
R24
(мм)
S
(см)
21 18.06 СЗ 1 н/о ясно +19.2 +14.9 76 +22 +22 комфорт 1017.3 1003.2
00 19.06 СЗ 1 н/о ясно +15.8 +13.1 84 +16 +16 по сезону 1017.8 1003.5
03 19.06 СЗ 1 10 км ясно +18.0 +14.7 81 +19 +20 тепло 1017.9 1003.8
06 19.06 СВ 2 20 км 3/0
[Ci fib]
+24.2 +13.6 52 +26 +34 жарко 1017.7 1003.8 +14.7
09 19.06 СВ 3 20 км 8/8 1000 м
[Cu med, cong]
+26.9 +12.5 41 +28 +31 жарко 1017.3 1003.6
12 19.06 СВ 1 20 км 8/6 1000 м
[Cu med, cong Ci fib]
+28.5 +11.3 34 +29 +35 жарко 1016.4 1002.7
15 19.06 штиль 0 20 км 6/4 1000 м
[Cu hum Ci fib]
+29.4 +12.4 35 +30 +34 жарко 1014.9 1001.3
18 19.06 штиль 0 10 км 6/3 1500 м
[Sc Ci fib]
+25.2 +15.9 56 +28 +28 жарко 1015.1 1001.3 +29.7
21 19.06 штиль 0 н/о 3/0
[Ac trans]
+18.7 +14.6 77 +19 +19 тепло 1015.7 1001.6
00 20.06 штиль 0 н/о 8/4 1000 м
[Sc Ac trans Ci fib]
+17.0 +14.6 86 +17 +17 тепло 1016.3 1002.1
03 20.06 В 1 10 км 8/0
[Ac trans Ci fib]
+19.3 +16.7 85 +22 +23 комфорт 1016.2 1002.2
06 20.06 ЮВ 1 20 км 8/0
[Cc]
+25.4 +17.0 60 +29 +37 душно 1016.1 1002.3 +15.8
09 20.06 ЮВ 3 20 км 8/6 1000 м
[Cu med, cong Ci fib]
+28.6 +15.0 44 +31 +36 жарко 1015.7 1002.1
12 20.06 ЮВ 4 20 км 6/4 1000 м
[Cu hum Ci fib]
+31.0 +15.8 40 +34 +39 душно 1014.8 1001.3
15 20.06 ЮВ 2 20 км 3/0
[Ci fib]
+30.4 +14.3 38 +32 +37 жарко 1014.1 1000.6
18 20.06 ЮВ 2 10 км 6/0
[Ci fib]
+25.0 +16.0 57 +28 +28 жарко 1014.2 1000.4 +31.2
21 20.06 штиль 0 н/о ясно +20.0 +16.0 78 +22 +22 комфорт 1015.7 1001.7
00 21.06 штиль 0 н/о 1/0
[Ci fib]
+17.1 +14.5 85 +17 +17 тепло 1016.2 1002.0
03 21.06 штиль 0 10 км 1/0
[Ci fib]
+18.0 +15.8 87 +18 +19 тепло 1016.5 1002.4
06 21.06 штиль 0 20 км ясно +25.4 +18.1 64 +30 +41 душно 1016.4 1002.6 +15.8
09 21.06 Ю 2 20 км 1/1 1000 м
[Cu hum]
+31.4 +12.8 32 +32 +47 жарко 1016.1 1002.6
12 21.06 ЮВ 2 20 км 3/3 1000 м
[Cu hum]
+32.5 +12.8 30 +33 +43 жарко 1015.5 1002.0
15 21.06 Ю 2 20 км 3/0
[Ci fib]
+31.5 +15.0 37 +34 +38 душно 1014.2 1000.7
18 21.06 Ю 2 10 км 3/0
[Ci fib]
+25.2 +16.4 58 +29 +29 душно 1015.2 1001.4 +32.7
21 21.06 штиль 0 н/о 1/0
[Ci fib]
+20.4 +15.9 75 +23 +23 комфорт 1015.9 1001.9
00 22.06 штиль 0 н/о ясно +17.6 +14.5 82 +18 +18 тепло 1016.2 1002.1
03 22.06 ЮВ 2 10 км 3/0
[Ac trans]
+19.2 +16.7 85 +21 +22 комфорт 1016.5 1002.4
06 22.06 штиль 0 20 км ясно +27.0 +17.1 55 +31 +42 душно 1016.3 1002.6 +16.0
09 22.06 Ю 2 20 км 6/6 1000 м
[Cu med, cong]
+31.6 +13.3 33 +33 +39 жарко 1016.4 1002.9
12 22.06 Ю 2 20 км 6/6 1000 м
[Cu med, cong]
+32.5 +13.3 31 +33 +39 жарко 1015.7 1002.2
15 22.06 СЗ 4 н/о 3/3 1000 м
[Cu hum]
+28.8 +17.1 49 +33 +35 очень
душно
1015.0 1001.4
18 22.06 СЗ 3 10 км 3/3 1000 м
[Sc diur, vesp Ci fib]
+25.4 +16.9 59 +29 +29 душно 1016.1 1002.3 +33.6
21 22.06 С 2 н/о 3/0
[Ci fib]
+22.0 +17.7 77 +27 +27 душно 1016.5 1002.6
00 23.06 СЗ 2 н/о 3/0
[Ci fib]
+20.8 +17.0 79 +25 +25 комфорт 1016.7 1002.7
03 23.06 С 3 10 км 3/0
[Ci fib]
+21.2 +17.8 81 +25 +26 комфорт 1016.9 1002.9
06 23.06 С 1 10 км 3/0
[Ac trans]
+25.1 +18.8 68 +30 +38 душно 1016.5 1002.7 +19.6
09 23.06 СЗ 4 20 км 5/0
[Ac trans]
+29.0 +19.2 55 +34 +42 очень
душно
1016.5 1002.9
12 23.06 СЗ 5 20 км 8/4 1000 м
[Cb calv Ac trans Ci fib]
+31.3 +17.7 44 +35 +38 очень
душно
1015.9 1002.4
15 23.06 Ю 1 10 км гроза без осадков 10/4 1000 м
[Cb calv Ac As]
+24.8 +15.8 57 +28 +29 жарко 1016.4 1002.6
18 23.06 С 3 10 км {гроза} 9/3 1500 м
[Sc diur, vesp Ac trans Ci fib]
+23.0 +14.8 60 +27 +27 душно 1017.4 1003.5 +31.7
21 23.06 С 2 н/о 4/0
[Ac trans]
+20.0 +16.2 79 +23 +23 комфорт 1018.8 1004.7
00 24.06 С 4 н/о 4/0
[Ac trans]
+18.2 +16.4 89 +18 +18 тепло 1019.0 1004.9
03 24.06 С 4 10 км 8/0
[Ac cast Cc]
+17.6 +15.9 90 +17 +18 по сезону 1019.9 1005.7
06 24.06 СВ 4 10 км ясно +21.6 +16.7 74 +26 +31 душно 1020.4 1006.4 +16.9
09 24.06 СВ 5 20 км 1/0
[Cc]
+26.2 +16.7 56 +30 +38 душно 1020.4 1006.6
12 24.06 С 7 20 км 1/1 1000 м
[Cu hum]
+28.3 +15.0 44 +31 +34 душно 1020.7 1007.0
15 24.06 СВ 6 20 км ясно +28.1 +15.1 45 +31 +33 душно 1020.8 1007.1
18 24.06 СВ 5 10 км ясно +25.1 +14.7 52 +28 +28 жарко 1021.9 1008.0 +29.3
21 24.06 С 4 н/о ясно +21.8 +13.1 58 +24 +24 комфорт 1023.9 1009.8
00 25.06 С 2 н/о ясно +17.2 +12.5 74 +18 +18 тепло 1025.0 1010.7
03 25.06 С 3 10 км 3/0
[Ci fib]
+17.4 +12.5 73 +17 +18 по сезону 1025.9 1011.6
06 25.06 В 3 20 км 3/0
[Ci fib]
+23.2 +12.5 51 +26 +32 жарко 1026.5 1012.5 +16.4
09 25.06 СВ 4 20 км 3/0
[Ci fib]
+26.2 +8.7 33 +26 +37 жарко 1026.8 1012.9
12 25.06 С 4 20 км 4/0
[Ci fib]
+27.2 +9.2 32 +27 +36 жарко 1026.3 1012.4
15 25.06 С 2 20 км 4/0
[Ci fib]
+28.2 +8.1 28 +28 +32 жарко 1025.3 1011.5

 

Местоположение метеостанции Чернигов (Черниговская область, Украина): широта 51.47 долгота 31.25 высота над уровнем моря 141 м.

В архиве по умолчанию представлена погода в Чернигове за последнюю неделю. Архивные данные за месяц целиком и за предыдущие месяцы, начиная с января 2011 года, Вы можете получить, выбрав интересующий диапазон дат из раскрывающегося списка и нажав кнопку "Ввод!".


*Определитесь, кто Вы:
робот инопланетянин человек

Внимание! Время в таблицах - всемирное. Для получения местного времени необходимо прибавить поправку, которая равна 2 ч.

Смотрите также архив погоды в соседних городах и на ближайших метеорологических станциях:

Погода в Покошичах (Черниговская область, Украина) (52 км)
Погода в Щорсе (Черниговская область, Украина) (62 км)
Погода в Остере (Черниговская область, Украина) (63 км)
Погода в Нежине (Черниговская область, Украина) (65 км)
Погода в Чернобыле (Киевская область, Украина) (74 км)
Погода в Брагине (Гомельская область, Беларусь) (77 км)
Погода в Гомеле (Гомельская область, Беларусь) (105 км)
Погода в Вышгороде (Киевская область, Украина) (113 км)
Погода в Семеновке (Черниговская область, Украина) (121 км)
Погода в Барышевке (Киевская область, Украина) (122 км)

Пояснения к столбцам:

Ветер - указаны скорость ветра в м/с - средняя за 10 мин, порывы в срок и между сроками (в фигурных скобках) и направление, откуда дует ветер: С - северный, СВ - северо-восточный, В - восточный, ЮВ - юго-восточный, Ю - южный, ЮЗ - юго-западный, З - западный, СЗ - северо-западный.
Видимость - горизонтальная дальность видимости в метрах или километрах. При видимости от 1 до 10 км при отсутствии осадков обычно наблюдается дымка, при ухудшении видимости до 1 км и менее - туман. В сухую погоду видимость может ухудшаться дымом, пылью или мглою.
Явления - указаны атмосферные явления, наблюдавшиеся в срок или в последний час перед сроком; фигурными скобками обозначены явления, наблюдавшиеся между сроками (за 1-3 часа до срока); квадратными скобками обозначены град или гололедные отложения с указанием их диаметра в мм.
Облачность - указаны через наклонную черту общая и нижняя облачность в баллах и высота нижней границы облаков в метрах; квадратными скобками обозначены формы облаков: Ci - перистые, Cs - перисто-слоистые, Cc - перисто-кучевые, Ac - высококучевые, As - высокослоистые, Sc - слоисто-кучевые, Ns - слоисто-дождевые, Cu - кучевые, Cb - кучево-дождевые. Подробнее классификацию облаков см. в Атласе облаков (PDF).
T - Температура воздуха - температура, измеренная на высоте 2 м над землей.
Td - Температура точки росы - температура, при понижении до которой содержащийся в воздухе водяной пар достигнет насыщения.
f - Относительная влажность воздуха - влажноcть воздуха, измеренная на высоте 2 м над землей.
Te - Эффективная температура - температура, которую ощущает одетый по сезону человек в тени. Характеристика душности погоды. При расчете учитывается влияние влажности воздуха и скорости ветра на теплоощущения человека.
Tes - Эффективная температура на солнце - температура, которую ощущает человек, с поправкой на солнечный нагрев. Характеристика знойности погоды. Зависит от высоты солнца над горизонтом, облачности и скорости ветра. Ночью, в пасмурную погоду, а также при ветре 12 м/с и более поправка равна нулю.
P - Атмосферное давление - приведенное к уровню моря атмосферное давление.
Po - Атмосферное давление - измеренное на уровне метеостанции атмосферное давление.
Tmin - Минимальная температура - минимум температуры воздуха на высоте 2 м над землей.
Tmax - Максимальная температура - максимум температуры воздуха на высоте 2 м над землей.
R - Количество осадков - Количество выпавших осадков за период времени, мм. При наведении курсора мыши на число - период времени, за который выпало указанное количество осадков.
R24 - Количество осадков - Количество выпавших осадков за 24 часа, мм.
S - Снежный покров - Высота снежного покрова, см. При наведении курсора мыши на число - состояние снежного покрова и степень покрытия местности в баллах.